Location: *
(38.4687°S, 157.1336°W)
Time: 05:53:59
(UTC+00:00)

Daily predictions for brighter satellites

Satellite Brightness Start Highest point End
(mag) Time Altitude Azimuth Time Altitude Azimuth Time Altitude Azimuth
IRS-1C 4.2 03:37:19 10° SSE 03:42:45 87° ENE 03:48:06 10° NNW
COSMO-SKYMED 1 2.6 03:40:03 10° NNE 03:44:24 80° ESE 03:48:50 10° S
Cosmos 2084 Rocket 4.0 03:45:55 10° N 03:49:45 39° ENE 03:53:47 10° SE
H-2A R/B 4.0 03:47:32 10° S 03:51:43 28° WSW 03:55:51 10° NW
ARIANE 5 R/B 2.7 03:46:44 10° SSE 03:51:59 81° WSW 03:57:13 10° NNW
Cosmos 1605 Rocket 4.1 03:50:16 10° N 03:56:14 58° E 04:02:22 10° SSE
IRS-P3 4.3 03:58:27 10° S 04:03:51 78° WSW 04:09:11 10° NNW
SL-16 R/B 2.2 04:00:55 10° SSW 04:06:39 89° ESE 04:12:19 10° NNE
Atlas Centaur 2 3.8 03:59:32 10° WNW 04:07:16 49° N 04:15:12 10° ENE
Cosmos 2123 Rocket 4.4 04:04:54 10° S 04:11:17 72° W 04:17:35 10° N
CZ-2D R/B 3.0 04:08:57 10° SSE 04:12:39 73° ENE 04:16:18 10° N
Cosmos 1606 Rocket 4.4 04:10:19 10° SSW 04:14:36 54° W 04:18:48 10° N
SME Rocket 3.2 04:10:08 10° SSE 04:15:14 62° ENE 04:19:07 10° N
Cosmos 1437 Rocket 4.3 04:12:07 10° NW 04:15:30 35° WSW 04:18:57 10° S
Cosmos 2082 4.2 04:10:57 10° NNW 04:16:34 63° WSW 04:22:18 10° SSE
Cosmos 2058 Rocket 3.1 04:14:04 10° S 04:18:27 59° E 04:22:45 10° NNE
Cosmos 1782 4.1 04:17:33 10° SSE 04:20:20 19° ESE 04:23:04 10° ENE
Cosmos 2263 Rocket 2.9 04:16:14 10° NW 04:21:44 54° WSW 04:27:20 10° SSE
USA 215 3.3 04:15:26 10° SE 04:22:04 85° SW 04:28:40 10° NW
Cosmos 923 Rocket 4.3 04:18:16 10° SSW 04:23:34 74° WNW 04:28:48 10° N
SMAP 3.4 04:19:13 10° SSE 04:23:44 43° E 04:28:10 10° N
Cosmos 1812 2.4 04:20:41 10° S 04:24:20 72° E 04:27:56 10° NNE
BlueWalker 3 1.9 04:22:30 10° NW 04:26:20 69° NE 04:28:44 22° ESE
Helios 1A 3.2 04:23:35 10° N 04:27:41 72° WNW 04:31:52 10° SSW
Cosmos 2227 4.3 04:22:41 10° N 04:28:16 60° ENE 04:33:53 10° SSE
Cosmos 1447 Rocket 4.4 04:23:31 10° S 04:29:44 64° E 04:35:51 10° NNE
Cosmos 2058 3.0 04:27:26 10° N 04:31:35 77° W 04:35:47 10° S
Cosmos 921 Rocket 3.7 04:30:29 10° S 04:34:25 32° ESE 04:38:21 10° NE
GEOS 3 Rocket 3.9 04:30:16 10° ENE 04:35:05 44° SE 04:39:58 10° SSW
SL-08 R/B 3.6 04:32:58 10° N 04:37:43 69° WNW 04:42:27 10° SSW
Helios 1B rocket 3.5 04:38:21 23° ENE 04:38:21 23° ENE 04:41:12 10° NNE
Meteor 2-3 Rocket 3.9 04:35:59 10° NNE 04:41:27 48° E 04:46:55 10° SSE
Cosmos 1544 2.2 04:41:02 10° N 04:43:49 72° E 04:44:31 44° SSE
Cosmos 1461 4.3 04:40:55 10° NNE 04:43:21 20° ENE 04:43:21 20° ENE
Cosmos 1943 3.3 04:38:32 10° SSW 04:44:12 56° ESE 04:49:48 10° NE
Cosmos 1844 Rocket 2.9 04:45:15 10° N 04:50:38 50° ENE 04:53:40 25° SE
CZ-2C R/B 3.0 04:50:05 41° ESE 04:50:40 44° E 04:54:17 10° N
NOSS 3-2 (C) 4.2 04:44:20 10° NNW 04:53:28 78° ENE 05:00:02 18° SE
USA 267 3.8 04:51:08 27° E 04:54:03 40° SSE 05:00:07 10° SW
Cosmos 1602 Rocket 3.6 04:49:52 10° N 04:54:09 54° E 04:56:17 27° SSE
Cosmos 1844 3.9 04:49:42 10° N 04:55:05 47° ENE 04:57:19 31° SE
CZ-4B R/B 4.2 04:57:48 42° ESE 04:58:41 50° E 05:02:51 10° N
Tiangong -2.3 04:56:25 10° WSW 04:59:35 85° NNW 04:59:35 85° NNW
Meteor 1-31 Rocket 2.8 05:00:36 51° ENE 05:00:36 51° ENE 05:04:09 10° N
Cosmos 1758 Rocket 3.4 04:57:42 10° N 05:02:01 78° E 05:04:47 22° SSE
Cosmos 1862 4.5 04:59:08 10° NNE 05:01:09 27° NE 05:01:09 27° NE
Cosmos 2100 Rocket 3.9 04:58:44 10° N 05:04:54 76° E 05:11:14 10° S
Cosmos 1818 4.1 05:05:49 10° SSW 05:10:21 38° SE 05:10:21 38° SE
Cosmos 2173 Rocket 3.8 05:05:32 10° N 05:11:37 81° E 05:17:51 10° S
Cosmos-2242 3.2 05:14:39 10° SSW 05:18:55 70° W 05:23:06 10° N
CENTAUR R/B 4.4 05:17:01 10° WNW 05:24:05 31° SW 05:29:46 11° SSE
Timation 2 Rocket 4.0 05:19:44 10° N 05:25:16 50° ENE 05:25:16 50° ENE
Cosmos 1725 Rocket 3.9 05:19:41 10° N 05:25:55 64° E 05:28:36 35° SSE
Meteor 2-8 Rocket 4.3 05:25:23 10° N 05:31:25 71° E 05:33:13 47° SSE
BREEZE-M R/B 3.6 05:31:50 10° NW 05:35:53 71° NE 05:35:58 71° NE
NOSS 3-3 (A) 3.6 05:32:00 10° SSW 05:38:18 78° SE 05:38:24 78° ESE
Cosmos 1802 Rocket 4.0 05:34:30 10° N 05:40:49 82° W 05:46:08 15° S
Cosmos 1816 Rocket 4.3 05:36:01 10° S 05:42:13 81° E 05:48:23 10° N
Meteor 1-26 Rocket 4.2 05:40:45 10° S 05:46:36 86° W 05:52:33 10° N
Cosmos 1867 4.5 05:41:28 10° NNW 05:44:46 37° N 05:44:46 37° N
Cosmos 1603 4.0 05:47:56 10° SSW 05:53:31 62° WNW 05:55:02 45° NNW
Cosmos 2016 Rocket 4.1 05:48:40 10° NNW 05:55:02 76° W 05:57:47 36° S
USA 238 DEB 4.0 05:47:11 10° NW 05:55:14 80° WSW 05:57:19 53° SSE
USA 238 4.0 05:47:15 10° NW 05:55:19 81° WSW 05:57:20 54° SSE
Atlas Centaur 2 3.9 05:48:35 10° W 05:56:10 38° NNW 05:58:40 32° NNE
ADEOS Rocket 3.6 05:59:45 40° NNW 05:59:45 40° NNW 06:03:16 10° NNW
NOSS 3-3 (C) 4.3 06:02:34 10° SW 06:07:36 55° WSW 06:07:36 55° WSW
USA 184 4.0 05:33:24 10° NNW 06:11:00 90° N 06:14:02 50° SSE
USA 267 4.0 06:38:30 49° WSW 06:38:30 49° WSW 06:43:22 10° SW
